This is the latest recevied weather packets stored in our database for station/object KI4NG. If no packets are shown the sender has not sent any weather packets the latest 1 day(s).
| Time | Temp. | Humidity | Pressure | Rain* | Wind** | Luminosity | Snow |
|---|---|---|---|---|---|---|---|
| 1778018951 | 21.67° C | 56% | 1010.8 hPa | 0 mm | 1.79 m/s, 251° | 114 W/m² | - |
| 1778018648 | 21.67° C | 54% | 1011 hPa | 0 mm | 4.92 m/s, 189° | 345 W/m² | - |
| 1778018345 | 21.67° C | 58% | 1010.9 hPa | 0 mm | 2.24 m/s, 180° | 340 W/m² | - |
| 1778018043 | 21.67° C | 56% | 1011.2 hPa | 0 mm | 5.36 m/s, 201° | 364 W/m² | - |
| 1778017741 | 21.67° C | 58% | 1011.4 hPa | 0 mm | 2.68 m/s, 222° | 359 W/m² | - |
| 1778017438 | 21.67° C | 58% | 1011.3 hPa | 0 mm | 1.79 m/s, 230° | 414 W/m² | - |
| 1778017135 | 21.67° C | 59% | 1011.3 hPa | 0 mm | 2.24 m/s, 143° | 428 W/m² | - |
| 1778016833 | 21.67° C | 59% | 1011.3 hPa | 0 mm | 1.34 m/s, 167° | 434 W/m² | - |
| 1778016529 | 21.67° C | 60% | 1011.4 hPa | 0 mm | 1.34 m/s, 169° | 439 W/m² | - |
| 1778016226 | 21.11° C | 60% | 1011.8 hPa | 0 mm | 0.89 m/s, 160° | 475 W/m² | - |
| 1778015922 | 20.56° C | 61% | 1011.7 hPa | 0 mm | 1.79 m/s, 169° | 218 W/m² | - |
| 1778015620 | 20.56° C | 62% | 1012 hPa | 0 mm | 2.24 m/s, 338° | 210 W/m² | - |
| 1778015316 | 20.56° C | 59% | 1011.7 hPa | 0 mm | 2.24 m/s, 229° | 248 W/m² | - |
| 1778015013 | 21.11° C | 57% | 1011.7 hPa | 0 mm | 3.13 m/s, 149° | 275 W/m² | - |
| 1778014710 | 20.56° C | 60% | 1012.2 hPa | 0 mm | 1.34 m/s, 175° | 347 W/m² | - |
| 1778014408 | 20° C | 63% | 1012.2 hPa | 0 mm | 1.34 m/s, 177° | 166 W/m² | - |
| 1778014105 | 20° C | 61% | 1012.3 hPa | 0 mm | 1.34 m/s, 185° | 129 W/m² | - |
| 1778013803 | 20° C | 61% | 1012.4 hPa | 0 mm | 2.24 m/s, 213° | 147 W/m² | - |
| 1778013500 | 20° C | 61% | 1012.4 hPa | 0 mm | 3.13 m/s, 155° | 139 W/m² | - |
| 1778013196 | 20° C | 61% | 1012.4 hPa | 0 mm | 2.68 m/s, 80° | 157 W/m² | - |
| 1778012893 | 20° C | 62% | 1012.5 hPa | 0 mm | 3.13 m/s, 88° | 181 W/m² | - |
| 1778012589 | 20.56° C | 63% | 1012.5 hPa | 0 mm | 1.34 m/s, 95° | 168 W/m² | - |
| 1778012286 | 21.11° C | 60% | 1012.6 hPa | 0 mm | 2.24 m/s, 164° | 173 W/m² | - |
| 1778011983 | 21.67° C | 58% | 1012.5 hPa | 0 mm | 3.13 m/s, 185° | 548 W/m² | - |
| 1778011682 | 21.67° C | 59% | 1012.6 hPa | 0 mm | 4.02 m/s, 192° | 407 W/m² | - |
* Rain latest hour (hover to see other rain measurements)
** Current wind speed in m/s (hover to see current wind gust speed)